Defiance, OH

9:06 AM EST on January 17, 2017 (GMT -0500)
Defiance Memorial

Weather History for KDFI - December, 2011

Change the Weather History Date:

Sunday, December 4, 2011

  Actual Average Record
Temperature  
Mean Temperature 48 °F -  
Max Temperature 51 °F 40 °F 67 °F (1982)
Min Temperature 44 °F 23 °F -2 °F (1976)
Degree Days  
Heating Degree Days 18    
Moisture  
Dew Point 42 °F    
Average Humidity 80    
Maximum Humidity 93    
Minimum Humidity 52    
Precipitation  
Precipitation 0.35 in - - ()
Sea Level Pressure  
Sea Level Pressure 30.13 in    
Wind  
Wind Speed 12 mph (SSW)    
Max Wind Speed 23 mph    
Max Gust Speed 30 mph    
Visibility 9 miles    
Events Rain    
Averages and records for this station are not official NWS values.
T = Trace of Precipitation, MM = Missing Value Source: NWS Daily Summary

Daily Weather History Graph

Daily Weather History Graph

Search for Another Location

Airport or City:

Trip Planner

Search our weather history database for the weather conditions in past years. The results will help you decide how hot, cold, wet, or windy it might be!

Date:

Astronomy

Dec. 04, 2011 Rise Set
Actual Time 7:46 AM EST 5:08 PM EST
Civil Twilight 7:16 AM EST 5:39 PM EST
Nautical Twilight 6:41 AM EST 6:13 PM EST
Astronomical Twilight 6:08 AM EST 6:47 PM EST
Moon 1:41 PM EST (12/4) 2:08 AM EST (12/4)
Length of Visible Light 10h 23m
Length of Day
9h 21m
Waxing Gibbous, 71% of the Moon is Illuminated
Dec 4
Waxing Gibbous
Dec 10
Full
Dec 17
Last Quarter
Dec 24
New
Jan 1
First Quarter

Hourly Weather History & Observations

Time (EST) Temp. Windchill Dew Point Humidity Pressure Visibility Wind Dir Wind Speed Gust Speed Precip Events Conditions
12:53 AM 48.9 °F - 32.0 °F 52% 30.12 in 10.0 mi South 10.4 mph - N/A   Clear
2:53 AM 48.9 °F - 32.0 °F 52% 30.08 in 10.0 mi SSW 15.0 mph 23.0 mph N/A   Overcast
3:53 AM 48.9 °F - 33.1 °F 54% 30.07 in 10.0 mi South 15.0 mph 20.7 mph 0.00 in   Overcast
4:53 AM 46.9 °F - 36.0 °F 66% 30.06 in 10.0 mi SSW 13.8 mph 20.7 mph 0.01 in Rain Light Rain
5:53 AM 46.0 °F 39.9 °F 37.9 °F 73% 30.09 in 5.0 mi SSW 13.8 mph 21.9 mph 0.04 in Rain Rain
6:53 AM 46.0 °F 40.6 °F 39.9 °F 79% 30.09 in 10.0 mi SSW 11.5 mph - 0.04 in Rain Light Rain
7:53 AM 46.9 °F - 41.0 °F 80% 30.09 in 10.0 mi SSW 23.0 mph 28.8 mph 0.01 in Rain Light Rain
8:53 AM 48.0 °F - 42.1 °F 80% 30.06 in 10.0 mi South 16.1 mph 24.2 mph 0.00 in   Overcast
9:53 AM 48.9 °F - 42.1 °F 77% 30.08 in 10.0 mi SSW 21.9 mph 29.9 mph 0.00 in Rain Light Rain
10:53 AM 50.0 °F - 43.0 °F 77% 30.08 in 10.0 mi SSW 17.3 mph 28.8 mph 0.03 in   Mostly Cloudy
11:53 AM 51.1 °F - 44.1 °F 77% 30.10 in 10.0 mi SSW 15.0 mph 26.5 mph N/A   Overcast
12:53 PM 51.1 °F - 44.1 °F 77% 30.09 in 10.0 mi SSW 12.7 mph 23.0 mph N/A   Mostly Cloudy
1:18 PM 51.8 °F - 44.6 °F 76% 30.08 in 10.0 mi SSW 15.0 mph 21.9 mph N/A   Overcast
1:53 PM 51.1 °F - 45.0 °F 80% 30.09 in 10.0 mi SSW 15.0 mph 24.2 mph 0.00 in   Overcast
2:53 PM 50.0 °F - 45.0 °F 83% 30.10 in 8.0 mi SSW 17.3 mph 21.9 mph 0.01 in Rain Light Rain
3:53 PM 50.0 °F - 46.0 °F 86% 30.07 in 5.0 mi South 13.8 mph - 0.05 in Rain Rain
4:01 PM 50.0 °F - 46.4 °F 87% 30.07 in 4.0 mi SSW 12.7 mph 20.7 mph 0.01 in Rain Light Rain
4:53 PM 50.0 °F - 46.9 °F 89% 30.12 in 9.0 mi SSW 10.4 mph - 0.02 in Rain Light Rain
5:53 PM 50.0 °F - 46.9 °F 89% 30.12 in 7.0 mi SSW 10.4 mph 19.6 mph 0.11 in Rain Light Rain
6:53 PM 50.0 °F - 46.9 °F 89% 30.16 in 9.0 mi SSW 10.4 mph - 0.02 in Rain Light Rain
7:40 PM 46.4 °F 45.2 °F 44.6 °F 93% 30.16 in 10.0 mi WNW 3.5 mph - 0.01 in Rain Light Rain
7:53 PM 46.9 °F - 43.0 °F 86% 30.18 in 10.0 mi Variable 5.8 mph - 0.01 in   Overcast
8:04 PM 46.4 °F 45.2 °F 42.8 °F 87% 30.17 in 10.0 mi Variable 3.5 mph - N/A   Overcast
8:44 PM 46.4 °F 44.3 °F 42.8 °F 87% 30.18 in 5.0 mi Variable 4.6 mph - 0.00 in Rain Light Rain
9:53 PM 46.0 °F 44.8 °F 43.0 °F 89% 30.19 in 10.0 mi WSW 3.5 mph - 0.00 in   Overcast
10:09 PM 46.4 °F - 42.8 °F 87% 30.18 in 10.0 mi Calm Calm - N/A   Overcast
10:27 PM 46.4 °F - 42.8 °F 87% 30.19 in 10.0 mi Calm Calm - N/A   Overcast
10:36 PM 46.4 °F - 42.8 °F 87% 30.19 in 10.0 mi Calm Calm - N/A   Overcast
10:49 PM 44.6 °F 43.1 °F 41.0 °F 87% 30.19 in 10.0 mi Variable 3.5 mph - N/A   Overcast
10:53 PM 45.0 °F 42.6 °F 41.0 °F 86% 30.20 in 10.0 mi Variable 4.6 mph - N/A   Overcast
11:45 PM 44.6 °F 43.1 °F 41.0 °F 87% 30.20 in 5.0 mi Variable 3.5 mph - N/A   Overcast
11:53 PM 44.1 °F 41.5 °F 41.0 °F 89% 30.22 in 4.0 mi Variable 4.6 mph - N/A   Overcast